Starlink 30388

operational
NORAD ID: 57784 Int'l Des: 2023-134 Owner: SPXS Country: US Constellation: starlink
LEOCIRCULAR

Starlink 30388について

説明を読み込み中...

リアルタイム位置

3D地球を読み込み中...

次回通過

高度履歴

Altitude vs Time

uPlot chart will show altitude changes over time

軌道要素

1 57784U 23134P 25259.72896384 .00005414 00000-0 41567-3 0 9994
2 57784 43.0007 62.7071 0000929 259.9604 100.1134 15.02524069113307
Epoch: Sep 16, 2025 • Age: 34 hours

現在のステータス

高度 563.2 km
速度 7.58 km/s
衛星直下点 -19.96°S, 158.58°W
打ち上げ日 Sep 4, 2023
運用期間 2 years
タイプ internet

技術仕様

分類 Payload
質量 730.00 kg
乾燥質量 700.00 kg
総質量 730.00 kg
長さ 0.30 m
直径 4.10 m
スパン 29.00 m
形状 Box + pan
製造者 SPXS
バスタイプ Starlink V2M
フェーズステータス In Orbit
所有者/国 SPXS/US

大規模コンステレーション

Loading constellations...